Regional Weather Roundup
Issued by NWS Grand Forks, ND

Home | Current Version | Previous Version | Graphics & Text | Print | Product List | Glossary On
Versions: 1 2 3 4 5 6 7 8 9 10 11 12 13 14 15 16 17 18 19 20 21 22 23 24 25 26 27 28 29 30 31 32 33 34 35 36 37 38 39 40 41 42 43 44 45 46 47 48 49 50
000
ASUS43 KFGF 220110
RWRFGF
PRAIRIE TO PINES  WEATHER ROUNDUP
NATIONAL WEATHER SERVICE EASTERN NORTH DAKOTA/GRAND FORKS ND
800 PM CDT MON MAY 21 2018

 **SATELLITE DATA USED TO AUGMENT SKY COVER AT AUTOMATED STATIONS**
 *****  WEATHER ACROSS EASTERN NORTH DAKOTA  *****

CITY           SKY/WX    TMP DP  RH WIND       PRES   REMARKS
GRAND FORKS    FAIR      72  46  39 S13       29.91F
GRAND FRKS AFB FAIR      72  44  36 S15       29.92S
GRAND FRKS NWS   N/A     73  45  37 S7        29.89F
DEVILS LAKE    FAIR      70  50  49 SE6       29.91F
FARGO          CLOUDY    67  54  63 S14       29.95S
WAHPETON ARPT  CLOUDY    63  52  67 SE13      29.97F
$$

 ***** WEATHER ACROSS CENTRAL AND WESTERN NORTH DAKOTA  *****

CITY           SKY/WX    TMP DP  RH WIND       PRES   REMARKS
BISMARCK       FAIR      73  50  44 S12       29.90F
MINOT          FAIR      77  39  25 S8        29.86F
JAMESTOWN      CLOUDY    69  55  60 SE9       29.92F
MINOT AFB      FAIR      76  40  26 S12       29.85S
GARRISON         N/A     73  44  35 S8        29.87F
WILLISTON      FAIR      78  43  28 SW7       29.84F
DICKINSON      FAIR      73  44  35 S9        29.87F
HETTINGER      FAIR      71  48  43 SE12      29.90F
$$

 *****  OTHER AIRPORT OBSERVATIONS IN OUR AREA  *****

CITY           SKY/WX    TMP DP  RH WIND       PRES   REMARKS
WALHALLA       FAIR      73  32  21 SE9       29.89F
GRAFTON AIRPOR FAIR      73  43  33 S8        29.92S
VALLEY CITY AR FAIR      68  57  68 S9        29.95F
CANDO          FAIR      73  45  35 S10G17    29.91F
CAVALIER APRT    N/A     75  28  17 S8        29.89F
GWINNER          N/A     66  57  72 SE10      29.95S
SHEYENNE NWR     N/A     67  56  67 SE10      29.95S
ROLLA          FAIR      73  41  31 S10G17    29.90F
 ***** THE ABOVE OBSERVATIONS ARE NON NWS ARE NOT QUALITY
       CONTROLLED AND MAY MIS-REPORT RAIN FOR SNOW...
$$

  *****  WEATHER ACROSS NORTHERN MINNESOTA  *****

CITY           SKY/WX    TMP DP  RH WIND       PRES   REMARKS
FLAG ISLAND    FAIR      70  39  32 SE3       29.93S
WARROAD        FAIR      66  45  45 CALM      29.94F
ROSEAU         FAIR      73  48  40 S5        29.93F
HALLOCK        FAIR      77  27  15 S7        29.90S
THF RVR FALLS  FAIR      70  39  32 S15       29.95F
BAUDETTE       FAIR      71  37  28 SW6       29.94F
WASKISH        FAIR      68  45  42 S6        29.97S
CROOKSTON      FAIR      72  43  35 S14       29.94F
STEPHEN NDAWN    N/A     75  37  25 S9          N/A
GREENBUSH NDAW   N/A     73  39  29 S3          N/A
$$
  *****  WEATHER ACROSS CENTRAL AND WEST MINNESOTA  *****

CITY           SKY/WX    TMP DP  RH WIND       PRES   REMARKS
FOSSTON        CLOUDY    66  39  37 S9        29.98F
BEMIDJI        FAIR      62  40  44 S6        29.99F
PARK RAPIDS    FAIR      59  47  64 SE8       30.00S
ELBOW LAKE     CLOUDY    59  54  82 SE6       30.00S
WADENA         MOCLDY    59  43  55 E7        30.00S
DETROIT LAKES  FAIR      63  46  55 S8        30.00S
MOORHEAD       FAIR      66  54  63 SE14      29.97S
FERGUS FALLS   CLOUDY    61  54  77 S8        29.96S
MORRIS MN      CLOUDY    59  55  88 SE7       29.99S
STAPLES        CLOUDY    57  39  51 CALM      30.01F
$$
  *****  WEATHER ELSEWHERE ACROSS MINNESOTA  *****

CITY           SKY/WX    TMP DP  RH WIND       PRES   REMARKS
DULUTH         MOCLDY    61  32  33 SE5       30.02S
INTRNTL FALLS  FAIR      73  34  23 CALM      29.94F
ELY            FAIR      70  28  21 SW7       29.98S
CLOQUET        DRIZZLE   57  41  54 NE5       30.02F
WHEATON        CLOUDY    61  54  77 SE6       30.00S
BRAINERD       CLOUDY    59  40  49 E3        30.01F
HIBBING        CLOUDY    61  36  39 S7        30.00S
ALEXANDRIA     CLOUDY    59  50  72 E6        30.01S
SAINT CLOUD    CLOUDY    56  48  74 N5        30.00S
MINNEAPOLIS    CLOUDY    63  53  70 SE9       30.00S
$$

  *****  WEATHER ACROSS SOUTH DAKOTA  *****

CITY           SKY/WX    TMP DP  RH WIND       PRES   REMARKS
SIOUX FALLS    FAIR      65  59  81 CALM      29.97S
BROOKINGS      CLOUDY    63  55  77 SE6       29.98S
WATERTOWN      CLOUDY    62  56  80 SE5       29.96F
HURON          FAIR      68  56  65 SE8       29.93S
SISSETON         N/A     64  56  75 SE9       29.96S
ABERDEEN       FAIR      69  57  65 SE10      29.93F
MITCHELL       FAIR      69  58  67 E8        29.94S
PIERRE         FAIR      71  51  49 E9        29.89S
MOBRIDGE       FAIR      73  50  44 SW6       29.88F
RAPID CITY     FAIR      72  56  57 E5        29.90S
$$

  *****  SOME WEATHER IN NEARBY STATES *****

CITY           SKY/WX    TMP DP  RH WIND       PRES   REMARKS
GLASGOW MT     FAIR      78  45  30 CALM      29.82S
GREAT FALLS MT FAIR      75  42  30 CALM      29.91S
CHEYENNE WY    FAIR      60  49  66 E7        30.04S
SCOTTSBLUFF NE FAIR      69  61  75 SE7       29.94S
OMAHA NE       FAIR      74  57  55 E8        29.96R
DES MOINES IA  FAIR      70  61  73 E5        29.95F
DAVENPORT IA   MOCLDY    67  64  90 N8        29.99R FOG
CHICAGO IL     CLOUDY    60  58  92 N6        29.98S FOG
EAU CLAIRE WI  CLOUDY    58  53  84 E7        30.02S
LA CROSSE WI   CLOUDY    59  57  93 CALM      29.99F FOG
$$

  *****  SOME NATIONAL WEATHER *****

CITY           SKY/WX    TMP DP  RH WIND       PRES   REMARKS
LA GUARDIA NY  MOCLDY    66  48  52 S9        30.15S
RALEIGH NC     TSTM      69  69 100 E9        30.14S FOG
ATLANTA GA     MOCLDY    73  64  73 SE5       30.11R
NEW ORLEANS LA MOCLDY    82  73  74 SE9       29.97R
OKLAHOMA CITY  FAIR      76  63  64 S6        29.97R
ALBUQUERQUE NM LGT RAIN  65  49  56 E21G26    29.98S
SALT LAKE CITY PTSUNNY   77  42  28 SW9       29.80S
LOS ANGELES CA FAIR      63  52  67 W12       29.86F
BOISE ID       FAIR      77  50  38 W12       29.82F
SEATTLE WA     FAIR      69  47  45 W9        30.02F
$$

*** WEATHER ACROSS MANITOBA...SASKATCHEWAN AND ONTARIO ***
                ***ONTARIO***

CITY           SKY/WX    TMP DP  RH WIND       PRES   REMARKS
GERALDTON      PTCLDY    66  32  28 SW12G23   29.99S
THUNDER BAY    MOCLDY    55  37  50 NE5       30.00F
SIOUX LOOKOUT  PTCLDY    73  32  21 W3        29.93F
TORONTO        CLOUDY    66  37  34 NE6       30.12F
BIG TROUT LK   CLOUDY    57  39  51 NE7       29.86R
PICKLE LAKE    PTCLDY    73  34  23 SW10      29.88F
DRYDEN         CLEAR     73  30  20 SW7       29.94F
KENORA         PTCLDY    70  34  26 SW7       29.95S
$$
                *** MANITOBA***

CITY           SKY/WX    TMP DP  RH WIND       PRES   REMARKS
BRANDON        MOSUNNY   77  39  25 S13       29.85S
DAUPHIN        SUNNY     79  34  19 SW9       29.80F
ISLAND LAKE    MOCLDY    68  34  28 W6        29.83S
PILOT MOUND      N/A     73  28  19 S10         N/A
THE PAS        SUNNY     75  39  27 SE10      29.75S
THOMPSON       CLOUDY    54  36  50 NE13G21   29.88R
WINNIPEG       MOSUNNY   77  28  16 SW12      29.88F
LYNN LAKE      SUNNY     59  37  44 E14G20    29.88R
CHURCHILL      CLOUDY    23  19  86 NE10      30.18R WCI  12
GILLAM         PTSUNNY   36  25  64 NE13G20   30.02R
$$
                ***SASKATCHEWAN***

CITY           SKY/WX    TMP DP  RH WIND       PRES   REMARKS
ESTEVAN        MOSUNNY   77  41  27 S7        29.82F
KINDERSLEY     MOSUNNY   79  41  25 NW17      29.79S
LLOYDMINSTER   PTSUNNY   73  41  31 N14G23    29.80R
PRINCE ALBERT  PTSUNNY   73  48  40 N9        29.75R
REGINA         PTSUNNY   79  45  29 SE6       29.77S
YORKTON        SUNNY     79  37  22 SW6       29.78F
N. BATTLEFORD  SUNNY     79  43  27 NW9       29.77R
LA RONGE       PTSUNNY   75  43  31 NE5       29.74S
SASKATOON      PTSUNNY   84  41  21 NW13G18   29.73S
SWIFT CURRENT  SUNNY     70  48  46 S21G29    29.80R
$$
NOTE: THESE ARE AUTOMATED STATIONS WITH LIMITED QUALITY CONTROL
      "FAIR" INDICATES FEW OR NO CLOUDS BELOW 12,000 FEET WITH NO
      SIGNIFICANT WEATHER AND/OR OBSTRUCTIONS TO VISIBILITY.
      SKY/WX - SKY CONDITION AND SIGNIFICANT WEATHER.
      TMP - AIR TEMPERATURE.    DP   - DEWPOINT TEMPERATURE.
      RH  - RELATIVE HUMIDITY.  PRES - PRESSURE.
      HX  - HEAT INDEX.         WCI  - WIND CHILL INDEX.
$




USA.gov is the U.S. government's official web portal to all federal, state and local government web resources and services.